Location: Donzy-le-Pr�
(47.3659°N, 3.1107°E)
Time: 08:25:39
(UTC+00:00)

USA 306 - Pass Details

Date: 03 March 2021
Orbit: 564 x 577 km, 54.0° (Epoch: 13 April)

Event Time Altitude Azimuth Distance (km) Brightness Sun altitude
Rises 19:59:26 0° 294° (WNW) 2,773 7.8 -24.8°
Reaches altitude 10° 20:01:50 10° 303° (WNW) 1,872 6.5 -25.2°
Enters shadow 20:05:20 36° 355° (N) 915 4.0 -25.8°
